SAA404 FAPE-FAOR

Flight info

Callsign SAA404
Flight time N/A
Altitude 33000
Route ITKIT UZ5 AVILO AVILO1B
Aircraft B738/M-SDE2E3FGHIRWXY/LB1

Departure

Time 2026-04-22 16:34
Airport Chief Dawid Stuurman International Airport (FAPE)

Arrival

Time N/A
Airport O.R. Tambo International Airport (FAOR)
Time Latitude Longitude Altitude Speed Heading
2026-04-22 16:26 -33.98448 25.61221 234 ft 0 kts 328°
2026-04-22 16:28 -33.98452 25.61223 234 ft 3 kts 328°
2026-04-22 16:28 -33.98475 25.61239 238 ft 4 kts 345°
2026-04-22 16:29 -33.98499 25.61241 238 ft 4 kts 23°
2026-04-22 16:29 -33.98516 25.61226 238 ft 1 kts 58°
2026-04-22 16:29 -33.98518 25.61222 239 ft 0 kts 58°
2026-04-22 16:32 -33.98488 25.61276 235 ft 13 kts 57°
2026-04-22 16:32 -33.98430 25.61393 236 ft 18 kts 70°
2026-04-22 16:32 -33.98374 25.61534 233 ft 20 kts 57°
2026-04-22 16:32 -33.98299 25.61679 234 ft 20 kts 58°
2026-04-22 16:33 -33.98232 25.61824 234 ft 20 kts 81°
2026-04-22 16:33 -33.98311 25.61941 236 ft 19 kts 156°
2026-04-22 16:33 -33.98422 25.61843 235 ft 40 kts 238°
2026-04-22 16:33 -33.98718 25.61280 238 ft 118 kts 238°
2026-04-22 16:34 -33.99266 25.60228 392 ft 167 kts 238°
2026-04-22 16:34 -33.99822 25.59026 1441 ft 157 kts 242°
2026-04-22 16:34 -34.00313 25.57847 2352 ft 163 kts 240°
2026-04-22 16:34 -34.00876 25.56516 2768 ft 195 kts 240°
2026-04-22 16:35 -34.01529 25.54970 3021 ft 220 kts 240°
2026-04-22 16:35 -34.02259 25.53238 3340 ft 240 kts 240°
2026-04-22 16:35 -34.03026 25.51423 4006 ft 244 kts 241°
2026-04-22 16:35 -34.03709 25.49529 4778 ft 250 kts 256°
2026-04-22 16:36 -34.03647 25.47449 5730 ft 253 kts 285°
2026-04-22 16:36 -34.02746 25.45644 6592 ft 261 kts 314°
2026-04-22 16:36 -34.01175 25.44506 7338 ft 271 kts 342°
2026-04-22 16:36 -33.99274 25.44350 8026 ft 281 kts 10°
2026-04-22 16:37 -33.97428 25.45156 8743 ft 285 kts 31°
2026-04-22 16:37 -33.95816 25.46544 9535 ft 286 kts 41°
2026-04-22 16:37 -33.94331 25.48156 10285 ft 289 kts 49°
2026-04-22 16:37 -33.92916 25.49900 10973 ft 293 kts 48°
2026-04-22 16:38 -33.91454 25.51713 11311 ft 313 kts 48°
2026-04-22 16:38 -33.89886 25.53675 11495 ft 336 kts 48°
2026-04-22 16:38 -33.88224 25.55769 11793 ft 354 kts 48°
2026-04-22 16:38 -33.86506 25.57935 12387 ft 361 kts 47°
2026-04-22 16:39 -33.84761 25.60134 13126 ft 364 kts 47°
2026-04-22 16:39 -33.83004 25.62348 13850 ft 368 kts 47°
2026-04-22 16:39 -33.81227 25.64587 14500 ft 372 kts 46°
2026-04-22 16:39 -33.79425 25.66858 15069 ft 378 kts 46°
2026-04-22 16:40 -33.77615 25.69140 15627 ft 384 kts 46°
2026-04-22 16:40 -33.75758 25.71479 16212 ft 389 kts 46°
2026-04-22 16:40 -33.71965 25.76255 17371 ft 400 kts 46°
2026-04-22 16:41 -33.70034 25.78686 17938 ft 405 kts 46°
2026-04-22 16:41 -33.68136 25.81227 18483 ft 411 kts 53°
2026-04-22 16:41 -33.66680 25.84194 18983 ft 415 kts 65°
2026-04-22 16:41 -33.65486 25.87362 19509 ft 418 kts 66°
2026-04-22 16:42 -33.64044 25.90404 19999 ft 422 kts 51°
2026-04-22 16:42 -33.62028 25.92971 20524 ft 424 kts 40°
2026-04-22 16:42 -33.59765 25.95260 21049 ft 426 kts 36°
2026-04-22 16:42 -33.57450 25.97420 21532 ft 429 kts 34°
2026-04-22 16:43 -33.55030 25.99607 22019 ft 432 kts 33°
2026-04-22 16:43 -33.52632 26.01738 22500 ft 436 kts 33°
2026-04-22 16:43 -33.50183 26.03899 22983 ft 439 kts 32°
2026-04-22 16:43 -33.47709 26.06079 23448 ft 442 kts 32°
2026-04-22 16:44 -33.45227 26.08264 23924 ft 445 kts 32°
2026-04-22 16:44 -33.42718 26.10477 24323 ft 448 kts 32°
2026-04-22 16:44 -33.40196 26.12702 24740 ft 450 kts 32°
2026-04-22 16:44 -33.37668 26.14929 25159 ft 452 kts 32°
2026-04-22 16:45 -33.35068 26.17054 25515 ft 450 kts 24°
2026-04-22 16:45 -33.32279 26.18585 25928 ft 443 kts 13°
2026-04-22 16:45 -33.29365 26.19726 26380 ft 440 kts
2026-04-22 16:45 -33.26422 26.20748 26928 ft 437 kts
2026-04-22 16:46 -33.23513 26.21778 27478 ft 435 kts 10°
2026-04-22 16:46 -33.20623 26.22872 28021 ft 434 kts 11°
2026-04-22 16:46 -33.17763 26.24017 28542 ft 433 kts 12°
2026-04-22 16:46 -33.14919 26.25194 29027 ft 432 kts 12°
2026-04-22 16:47 -33.12086 26.26382 29524 ft 431 kts 12°
2026-04-22 16:47 -33.09269 26.27569 30062 ft 429 kts 11°
2026-04-22 16:47 -33.07408 26.28352 30373 ft 427 kts 11°
2026-04-22 16:47 -33.03687 26.29915 31076 ft 420 kts 10°
2026-04-22 16:48 -33.00974 26.31049 31524 ft 417 kts 10°
2026-04-22 16:48 -32.98238 26.32187 31929 ft 415 kts
2026-04-22 16:48 -32.95514 26.33318 32332 ft 414 kts
2026-04-22 16:48 -32.92804 26.34443 32747 ft 411 kts
2026-04-22 16:49 -32.90113 26.35561 33176 ft 408 kts
2026-04-22 16:49 -32.87431 26.36672 33432 ft 410 kts
2026-04-22 16:49 -32.84714 26.37791 33401 ft 414 kts
2026-04-22 16:50 -32.79300 26.40039 33411 ft 406 kts
2026-04-22 16:50 -32.74023 26.42227 33420 ft 402 kts
2026-04-22 16:51 -32.68722 26.44411 33422 ft 404 kts
2026-04-22 16:51 -32.63316 26.46639 33430 ft 419 kts
2026-04-22 16:52 -32.57734 26.48944 33429 ft 434 kts
2026-04-22 16:52 -32.51937 26.51347 33407 ft 447 kts
2026-04-22 16:53 -32.46007 26.53807 33407 ft 454 kts
2026-04-22 16:53 -32.40039 26.56283 33407 ft 451 kts
2026-04-22 16:54 -32.34179 26.58713 33399 ft 443 kts
2026-04-22 16:54 -32.28356 26.61104 33370 ft 442 kts
2026-04-22 16:55 -32.22549 26.63490 33397 ft 441 kts
2026-04-22 16:55 -32.16756 26.65868 33393 ft 440 kts
2026-04-22 16:56 -32.11007 26.68214 33389 ft 440 kts
2026-04-22 16:56 -32.05222 26.70569 33392 ft 440 kts
2026-04-22 16:57 -31.99425 26.72928 33384 ft 440 kts
2026-04-22 16:57 -31.93627 26.75286 33373 ft 440 kts
2026-04-22 16:58 -31.88815 26.77241 33382 ft 439 kts
2026-04-22 16:58 -31.82102 26.79964 33377 ft 439 kts
2026-04-22 16:59 -31.76328 26.82303 33380 ft 438 kts
2026-04-22 16:59 -31.70571 26.84638 33369 ft 438 kts
2026-04-22 17:00 -31.64822 26.86970 33368 ft 437 kts
2026-04-22 17:00 -31.56231 26.90447 33379 ft 433 kts
2026-04-22 17:01 -31.50539 26.92744 33386 ft 432 kts
2026-04-22 17:01 -31.44843 26.95041 33370 ft 432 kts
2026-04-22 17:02 -31.39162 26.97330 33369 ft 431 kts
2026-04-22 17:02 -31.33488 26.99611 33370 ft 431 kts
2026-04-22 17:03 -31.27820 27.01881 33351 ft 430 kts
2026-04-22 17:03 -31.22190 27.04136 33367 ft 429 kts
2026-04-22 17:04 -31.16541 27.06395 33352 ft 428 kts
2026-04-22 17:04 -31.10893 27.08651 33355 ft 429 kts
2026-04-22 17:05 -31.05246 27.10904 33337 ft 428 kts
2026-04-22 17:05 -30.99651 27.13134 33337 ft 427 kts
2026-04-22 17:06 -30.94021 27.15374 33336 ft 427 kts
2026-04-22 17:06 -30.88396 27.17611 33330 ft 427 kts
2026-04-22 17:07 -30.82762 27.19849 33311 ft 427 kts
2026-04-22 17:07 -30.77138 27.22078 33331 ft 427 kts
2026-04-22 17:08 -30.71504 27.24310 33312 ft 427 kts
2026-04-22 17:08 -30.65881 27.26534 33314 ft 427 kts
2026-04-22 17:09 -30.60306 27.28737 33308 ft 424 kts
2026-04-22 17:09 -30.54718 27.30941 33298 ft 423 kts
2026-04-22 17:10 -30.49151 27.33133 33288 ft 422 kts
2026-04-22 17:10 -30.43587 27.35319 33290 ft 422 kts
2026-04-22 17:11 -30.38959 27.37136 33279 ft 422 kts
2026-04-22 17:11 -30.32487 27.39677 33259 ft 422 kts
2026-04-22 17:12 -30.26924 27.41858 33274 ft 422 kts
2026-04-22 17:12 -30.21359 27.44035 33274 ft 422 kts
2026-04-22 17:13 -30.16740 27.45842 33265 ft 422 kts
2026-04-22 17:13 -30.10269 27.48370 33270 ft 420 kts
2026-04-22 17:14 -30.05629 27.50183 33256 ft 419 kts
2026-04-22 17:14 -30.00115 27.52333 33254 ft 418 kts
2026-04-22 17:15 -29.94604 27.54478 33260 ft 417 kts
2026-04-22 17:15 -29.89116 27.56613 33264 ft 414 kts
2026-04-22 17:16 -29.83716 27.58712 33256 ft 412 kts
2026-04-22 17:16 -29.78298 27.60814 33266 ft 409 kts
2026-04-22 17:17 -29.72895 27.62904 33255 ft 411 kts
2026-04-22 17:17 -29.67477 27.64997 33272 ft 411 kts
2026-04-22 17:18 -29.62027 27.67101 33250 ft 413 kts
2026-04-22 17:18 -29.56587 27.69204 33269 ft 413 kts
2026-04-22 17:19 -29.45626 27.73427 33251 ft 417 kts
2026-04-22 17:20 -29.34624 27.77661 33248 ft 419 kts
2026-04-22 17:21 -29.26340 27.80843 33259 ft 418 kts
2026-04-22 17:22 -29.18055 27.84019 33252 ft 417 kts
2026-04-22 17:23 -29.09840 27.87163 33259 ft 416 kts
2026-04-22 17:23 -29.01609 27.90306 33243 ft 415 kts
2026-04-22 17:24 -28.96139 27.92392 33223 ft 414 kts
2026-04-22 17:24 -28.90670 27.94474 33245 ft 414 kts
2026-04-22 17:25 -28.85200 27.96556 33246 ft 414 kts
2026-04-22 17:25 -28.79741 27.98631 33250 ft 414 kts
2026-04-22 17:26 -28.74298 28.00697 33253 ft 414 kts
2026-04-22 17:26 -28.68820 28.02774 33212 ft 415 kts
2026-04-22 17:27 -28.63338 28.04851 33237 ft 415 kts
2026-04-22 17:27 -28.57861 28.06924 33259 ft 415 kts
2026-04-22 17:28 -28.52372 28.08999 33269 ft 416 kts